Preview of NWS' New Version of Forecast
This preview is not operational and should not be used for support decisions.

Regional Weather Roundup (RWR)

Issued by National Weather Service (NWS)

                            
000
ASUS44 KJAN 192310
RWRMS 

MISSISSIPPI HOURLY WEATHER ROUNDUP
NATIONAL WEATHER SERVICE JACKSON MS
500 PM CST TUE FEB 19 2019

NOTE: "FAIR: INDICATES FEW OR NO CLOUDS BELOW 12,000 FEET WITH NO
SIGNIFICANT WEATHER AND/OR OBSTRUCTIONS TO VISIBILITY.

MSZ001>002-007>008-010>013-018>021-025>028-034>036-200000-
NORTHWEST MISSISSIPPI
  
CITY           SKY/WX    TMP DP  RH WIND       PRES   REMARKS
BATESVILLE     LGT RAIN  43  41  93 VRB5      30.05F                  
CLARKSDALE     CLOUDY    41  41 100 NE9       30.06F FOG              
CLEVELAND      CLOUDY    43  43 100 NE7       30.01F FOG              
GREENWOOD      CLOUDY    50  46  86 E20G31    29.99F                  
GREENVILLE     LGT RAIN  47  45  93 E15       30.00F                  
OLIVE BRANCH   RAIN      36  36 100 E9G23     30.11F WCI  29          
OXFORD         DRIZZLE   41  41 100 E10       30.08R                  
TUNICA         RAIN      36  36 100 NE12      30.08F WCI  27          
WINONA         CLOUDY    48  47  96 E8G18     30.04F                  
$$

MSZ003>006-009-014>017-022>024-029>033-037>039-200000-
NORTHEAST MISSISSIPPI
  
CITY           SKY/WX    TMP DP  RH WIND       PRES   REMARKS
ABERDEEN       RAIN      48  48 100 VRB6G17   30.14R                  
COLUMBUS AFB   TSTM      48  45  87 E15       30.12R FOG              
CORINTH        CLOUDY    41  39  93 E13       30.10F                  
GOLDN TRIANGLE MOCLDY    46  45  93 E16       30.13F FOG              
STARKVILLE     CLOUDY    45  45 100 E10G20    30.13S                  
TUPELO         LGT RAIN  46  43  89 E9        30.10F                  
$$

MSZ040-058-200000-
CENTRAL MISSISSIPPI
  
CITY           SKY/WX    TMP DP  RH WIND       PRES   REMARKS
JACKSON INTL   CLOUDY    46  43  89 E8        30.03F                  
JACKSON HAWKNS RAIN      47  45  93 E13       30.02F FOG              
MADISON        CLOUDY    43  43 100 E5        30.03F                  
MERIDIAN KEY   CLOUDY    49  45  86 NE8       30.07F FOG              
MERIDIAN NAS   RAIN      48  46  93 E6        30.11S FOG              
RAYMOND          N/A     46  46 100 E13G20    30.00F                  
VICKSBURG VKS  CLOUDY    48  46  93 E16G29    29.96F                  
$$

MSZ059>079-200000-
SOUTH MISSISSIPPI
  
CITY           SKY/WX    TMP DP  RH WIND       PRES   REMARKS
HATTIESBURG    LGT RAIN  50  49  96 NE6       30.04S                  
LAUREL         CLOUDY    47  47 100 E6        30.06R                  
MCCOMB         CLOUDY    49  47  93 VRB6G17   29.97F FOG              
NATCHEZ        CLOUDY    50  47  89 SE14G22   29.93F                  
PINE BELT      LGT RAIN  49  48  97 NE7       30.04F FOG              
$$

MSZ080>082-200000-
COASTAL MISSISSIPPI
  
CITY           SKY/WX    TMP DP  RH WIND       PRES   REMARKS
BAY ST LOUIS   LGT RAIN  59  57  94 E3        29.97F FOG              
BILOXI         CLOUDY    64  64 100 SE17G24   29.97S FOG              
PASCAGOULA     CLOUDY    66  63  90 SE13G23   29.99F FOG              
GULFPORT       CLOUDY    60  59  96 NE7       29.97F FOG              
$$

LAZ007>009-015>016-023>026-200000-
NORTHEAST LOUISIANA
  
CITY           SKY/WX    TMP DP  RH WIND       PRES   REMARKS
BASTROP        CLOUDY    44  43  97 E8        29.97S FOG              
TALLULAH/VBURG CLOUDY    48  44  86 E15       29.97F                  
VIDALIA        CLOUDY    52  48  87 E9        29.92F                  
$$